�N����,����,�~����,�C��,���x,�C��,����,���ϕ���,�ő�u�ԕ���,�ő厞����,���˗�,�I�_���x,�n�����x,�ő啗���N��,DTYPE
"22/01/19","00:10",0.0,0.3,93.5,1015.6,281.3,2.2,5.5,243.7,0.00,-0.6,5.0,"00:03:36",1
"22/01/19","00:20",0.0,0.6,93.2,1015.6,286.2,2.5,4.4,316.2,0.00,-0.3,5.1,"00:18:48",1
"22/01/19","00:30",0.0,0.7,93.0,1015.4,282.5,2.5,4.1,266.2,0.00,-0.3,5.0,"00:29:46",1
"22/01/19","00:40",0.0,0.5,92.8,1015.2,308.3,2.7,4.1,315.1,0.00,-0.5,5.0,"00:32:52",1
"22/01/19","00:50",0.0,0.2,92.7,1014.7,301.6,1.7,2.6,326.2,0.00,-0.8,5.0,"00:48:48",1
"22/01/19","01:00",0.0,0.0,92.7,1015.2,318.0,2.1,2.9,338.8,0.00,-1.0,5.1,"00:50:32",1
"22/01/19","01:10",0.0,-0.4,92.6,1015.2,317.8,1.7,2.9,331.9,0.00,-1.4,4.9,"01:06:08",1
"22/01/19","01:20",0.0,-0.4,92.8,1015.2,300.5,2.2,3.4,319.3,0.00,-1.4,4.9,"01:14:00",1
"22/01/19","01:30",0.0,-0.2,92.9,1015.2,316.0,3.2,4.2,321.1,0.00,-1.2,5.0,"01:24:08",1
"22/01/19","01:40",0.0,-0.3,93.0,1015.4,325.4,3.1,4.1,327.5,0.00,-1.3,4.8,"01:36:48",1
"22/01/19","01:50",0.0,-0.5,93.1,1015.2,326.5,2.6,3.7,333.7,0.00,-1.4,4.8,"01:47:12",1
"22/01/19","02:00",0.0,-0.6,93.2,1014.9,325.7,2.0,3.2,332.8,0.00,-1.5,4.8,"01:51:28",1
"22/01/19","02:10",0.0,-0.6,93.3,1015.4,326.5,2.3,3.4,336.3,0.00,-1.5,4.9,"02:04:16",1
"22/01/19","02:20",0.0,-0.7,93.5,1015.4,327.1,2.1,2.8,324.4,0.00,-1.6,4.8,"02:11:28",1
"22/01/19","02:30",0.0,-0.5,93.7,1015.2,317.8,2.5,3.2,326.5,0.00,-1.3,4.8,"02:26:24",1
"22/01/19","02:40",0.0,-0.5,93.8,1014.9,314.5,2.3,3.1,330.6,0.00,-1.3,4.7,"02:38:16",1
"22/01/19","02:50",0.0,-0.5,94.0,1015.2,324.3,2.1,3.9,328.3,0.00,-1.3,4.7,"02:48:48",1
"22/01/19","03:00",0.0,-0.1,94.0,1015.4,318.0,2.2,4.0,324.5,0.00,-0.9,4.7,"02:52:40",1
"22/01/19","03:10",0.0,0.1,94.0,1015.2,311.5,2.1,3.2,320.5,0.00,-0.7,4.7,"03:01:30",1
"22/01/19","03:20",0.0,-0.3,94.1,1015.6,333.8,0.3,1.3,306.4,0.00,-1.1,4.7,"03:10:08",1
"22/01/19","03:30",0.0,-0.7,94.1,1014.9,291.2,0.6,1.3,307.0,0.00,-1.5,4.7,"03:23:52",1
"22/01/19","03:40",0.0,-0.8,94.3,1014.9,339.8,1.0,2.4,320.7,0.00,-1.6,4.6,"03:34:48",1
"22/01/19","03:50",0.0,-1.0,94.6,1015.2,337.2,1.2,1.9,324.9,0.00,-1.7,4.6,"03:43:20",1
"22/01/19","04:00",0.0,-1.3,94.6,1014.9,281.2,0.7,1.3,335.4,0.00,-2.0,4.5,"03:50:08",1
"22/01/19","04:10",0.0,-1.4,94.9,1014.9,319.3,0.8,1.3,320.5,0.00,-2.1,4.5,"04:00:56",1
"22/01/19","04:20",0.0,-1.3,94.9,1014.7,303.5,0.6,1.2,308.8,0.00,-2.0,4.5,"04:18:40",1
"22/01/19","04:30",0.0,-1.4,95.0,1014.5,298.1,0.5,1.1,312.1,0.00,-2.1,4.4,"04:21:12",1
"22/01/19","04:40",0.0,-1.3,95.0,1014.9,310.6,0.5,1.3,332.1,0.00,-2.0,4.4,"04:39:20",1
"22/01/19","04:50",0.0,-1.5,95.1,1014.5,332.1,1.2,1.8,331.4,0.00,-2.1,4.3,"04:47:20",1
"22/01/19","05:00",0.0,-1.5,95.2,1014.7,338.4,1.1,2.7,329.3,0.00,-2.1,4.6,"04:54:32",1
"22/01/19","05:10",0.0,-1.5,95.3,1014.5,330.7,1.1,2.2,336.5,0.00,-2.1,4.2,"05:03:36",1
"22/01/19","05:20",0.0,-1.8,95.4,1014.5,300.1,0.8,1.8,313.3,0.00,-2.4,4.5,"05:13:20",1
"22/01/19","05:30",0.0,-1.9,95.6,1014.7,309.1,1.0,1.8,320.0,0.00,-2.5,4.6,"05:24:24",1
"22/01/19","05:40",0.0,-1.8,95.7,1014.5,312.8,1.3,2.0,320.8,0.00,-2.4,4.3,"05:32:00",1
"22/01/19","05:50",0.0,-2.0,95.9,1014.7,327.6,1.6,2.2,328.1,0.00,-2.5,4.5,"05:42:00",1
"22/01/19","06:00",0.0,-1.8,96.0,1014.7,339.4,1.2,2.1,336.1,0.00,-2.3,4.2,"05:50:48",1
"22/01/19","06:10",0.0,-1.9,96.1,1014.7,322.8,1.3,2.1,333.4,0.00,-2.4,4.3,"06:03:12",1
"22/01/19","06:20",0.0,-1.9,96.2,1015.2,284.9,0.2,1.0,311.2,0.00,-2.4,4.2,"06:10:08",1
"22/01/19","06:30",0.0,-1.6,96.3,1014.7,326.9,0.7,1.6,330.3,0.00,-2.1,4.3,"06:26:32",1
"22/01/19","06:40",0.0,-1.7,96.2,1014.7,343.8,0.8,2.2,344.9,0.00,-2.2,4.3,"06:35:36",1
"22/01/19","06:50",0.0,-2.1,96.4,1014.9,284.6,1.1,1.8,320.3,0.00,-2.6,4.3,"06:48:16",1
"22/01/19","07:00",0.0,-2.1,96.7,1015.2,314.0,1.8,2.2,321.0,0.00,-2.5,4.2,"06:57:28",1
"22/01/19","07:10",0.0,-2.1,96.7,1015.4,326.1,1.6,2.6,320.2,0.00,-2.5,4.2,"07:04:00",1
"22/01/19","07:20",0.0,-2.0,96.9,1015.4,314.2,1.2,2.2,315.9,0.00,-2.4,4.2,"07:16:32",1
"22/01/19","07:30",0.0,-2.1,96.9,1015.2,306.4,1.6,2.2,322.6,0.00,-2.5,4.2,"07:28:32",1
"22/01/19","07:40",0.0,-2.0,97.1,1015.6,316.5,1.8,2.1,318.8,0.00,-2.4,4.2,"07:33:44",1
"22/01/19","07:50",0.0,-1.5,97.1,1015.2,331.6,1.5,2.0,335.5,0.00,-1.9,4.3,"07:47:36",1
"22/01/19","08:00",0.0,-1.5,97.2,1015.6,267.3,0.7,1.3,281.5,0.00,-1.8,4.1,"07:50:02",1
"22/01/19","08:10",0.0,-1.1,97.4,1015.9,284.3,1.3,1.8,313.1,0.03,-1.4,4.2,"08:09:44",1
"22/01/19","08:20",0.0,0.0,97.4,1016.1,294.8,1.1,1.8,313.4,0.06,-0.3,4.2,"08:10:08",1
"22/01/19","08:30",0.0,0.2,97.3,1015.9,175.0,0.3,0.5,249.5,0.07,-0.1,4.2,"08:22:42",1
"22/01/19","08:40",0.0,0.9,97.3,1015.9,252.1,0.7,2.0,312.1,0.09,0.6,3.9,"08:39:44",1
"22/01/19","08:50",0.0,1.9,97.1,1016.4,272.5,2.3,3.4,269.5,0.11,1.5,4.1,"08:43:46",1
"22/01/19","09:00",0.0,2.1,96.6,1016.4,281.9,2.6,4.0,251.0,0.11,1.7,4.2,"08:57:34",1
"22/01/19","09:10",0.0,2.2,96.3,1016.8,284.8,2.8,5.1,298.6,0.12,1.7,4.2,"09:02:38",1
"22/01/19","09:20",0.0,2.4,95.9,1017.1,294.6,2.8,5.0,311.5,0.11,1.9,4.3,"09:18:54",1
"22/01/19","09:30",0.0,2.8,95.8,1016.8,302.6,3.7,4.9,314.2,0.16,2.2,4.2,"09:21:04",1
"22/01/19","09:40",0.0,3.1,95.2,1017.1,293.0,3.4,5.9,319.8,0.19,2.4,4.2,"09:31:40",1
"22/01/19","09:50",0.0,3.4,94.3,1017.3,300.9,3.5,6.5,312.4,0.22,2.6,4.3,"09:45:20",1
"22/01/19","10:00",0.0,3.7,92.8,1017.5,294.1,3.6,5.7,304.6,0.21,2.7,4.3,"09:59:06",1
"22/01/19","10:10",0.0,4.3,91.8,1017.5,302.8,3.2,4.5,335.4,0.28,3.1,4.2,"10:03:42",1
"22/01/19","10:20",0.0,4.7,89.2,1017.5,294.3,3.4,5.1,322.5,0.31,3.1,4.4,"10:11:58",1
"22/01/19","10:30",0.0,4.9,86.5,1017.5,284.6,2.7,3.5,317.8,0.25,2.9,4.3,"10:29:32",1
"22/01/19","10:40",0.0,5.5,83.2,1017.8,283.9,2.8,4.2,315.5,0.40,2.9,4.3,"10:33:16",1
"22/01/19","10:50",0.0,5.3,79.1,1017.8,265.2,2.7,4.1,247.8,0.28,2.0,4.4,"10:42:08",1
"22/01/19","11:00",0.0,5.1,77.2,1017.8,270.5,2.0,2.5,272.1,0.16,1.5,4.6,"10:51:38",1
"22/01/19","11:10",0.0,5.4,76.9,1017.3,333.5,3.5,5.6,318.2,0.29,1.7,4.5,"11:09:48",1
"22/01/19","11:20",0.0,5.0,75.5,1017.1,320.7,3.6,6.6,332.6,0.17,1.1,4.8,"11:13:02",1
"22/01/19","11:30",0.0,5.0,74.8,1017.1,302.4,3.9,7.4,328.1,0.18,0.9,4.5,"11:25:38",1
"22/01/19","11:40",0.0,5.4,75.3,1016.6,306.7,3.9,6.3,321.2,0.26,1.4,4.7,"11:33:14",1
"22/01/19","11:50",0.0,5.7,73.0,1016.1,293.6,3.5,5.8,325.2,0.33,1.3,4.7,"11:49:54",1
"22/01/19","12:00",0.0,6.1,72.0,1016.4,310.5,4.9,8.1,312.6,0.45,1.5,4.9,"11:53:04",1
"22/01/19","12:10",0.0,6.4,70.3,1015.9,282.8,3.6,5.1,311.7,0.46,1.4,4.8,"12:01:44",1
"22/01/19","12:20",0.0,6.7,68.3,1015.9,276.5,2.7,5.4,318.4,0.47,1.3,4.8,"12:17:12",1
"22/01/19","12:30",0.0,7.3,67.2,1015.9,279.8,3.0,4.8,306.6,0.53,1.7,4.9,"12:20:02",1
"22/01/19","12:40",0.0,7.6,66.0,1015.4,275.8,3.5,5.8,340.2,0.61,1.7,5.1,"12:37:40",1
"22/01/19","12:50",0.0,6.7,63.5,1015.2,277.8,3.5,6.6,281.7,0.25,0.3,5.0,"12:46:12",1
"22/01/19","13:00",0.0,6.1,66.2,1015.2,293.9,2.8,5.2,312.3,0.06,0.3,5.2,"12:54:26",1
"22/01/19","13:10",0.0,6.1,68.6,1014.7,307.6,3.4,6.0,330.5,0.11,0.8,5.2,"13:01:28",1
"22/01/19","13:20",0.0,5.8,68.7,1014.5,298.3,3.2,5.2,290.8,0.09,0.5,5.2,"13:14:28",1
"22/01/19","13:30",0.0,5.9,69.2,1014.5,283.5,2.5,4.1,333.8,0.11,0.7,5.2,"13:20:40",1
"22/01/19","13:40",0.0,5.7,70.7,1014.2,284.4,2.5,4.2,312.2,0.08,0.8,5.5,"13:35:30",1
"22/01/19","13:50",0.0,5.6,72.0,1014.5,278.6,2.5,3.2,300.7,0.09,1.0,5.6,"13:44:50",1
"22/01/19","14:00",0.0,5.6,72.0,1014.0,278.2,2.5,3.7,319.5,0.15,1.0,5.4,"13:57:56",1
"22/01/19","14:10",0.0,6.8,70.3,1014.2,280.9,2.3,3.5,289.5,0.33,1.8,5.7,"14:05:52",1
"22/01/19","14:20",0.0,6.3,67.0,1013.8,294.0,3.1,4.2,318.5,0.15,0.7,5.7,"14:13:56",1
"22/01/19","14:30",0.0,6.2,67.4,1014.2,288.0,3.1,4.3,311.3,0.14,0.7,5.6,"14:26:48",1
"22/01/19","14:40",0.0,5.9,69.5,1014.2,265.6,2.3,3.2,243.8,0.15,0.8,5.6,"14:31:42",1
"22/01/19","14:50",0.0,5.8,70.6,1013.8,270.0,2.3,3.2,281.4,0.10,0.9,5.5,"14:43:14",1
"22/01/19","15:00",0.0,6.1,71.2,1014.0,290.3,2.8,4.3,317.5,0.16,1.3,5.7,"14:58:34",1
"22/01/19","15:10",0.0,6.7,69.9,1013.5,293.4,3.1,5.2,310.6,0.23,1.6,5.7,"15:03:38",1
"22/01/19","15:20",0.0,6.2,68.0,1013.8,293.3,2.7,4.2,326.9,0.06,0.8,5.7,"15:19:44",1
"22/01/19","15:30",0.0,5.8,68.8,1013.5,295.6,3.0,5.4,338.1,0.06,0.6,5.8,"15:20:08",1
"22/01/19","15:40",0.0,5.8,69.8,1013.8,290.7,2.5,4.2,335.9,0.09,0.8,6.1,"15:30:52",1
"22/01/19","15:50",0.0,6.0,70.6,1013.5,282.4,2.5,3.4,296.2,0.07,1.1,5.8,"15:42:48",1
"22/01/19","16:00",0.0,5.9,70.6,1013.5,285.2,2.7,6.2,320.5,0.07,1.0,5.8,"15:51:42",1
"22/01/19","16:10",0.0,5.8,70.9,1013.8,288.0,2.8,4.4,328.4,0.07,1.0,6.1,"16:07:22",1
"22/01/19","16:20",0.0,5.5,71.8,1013.5,282.6,2.8,4.3,266.3,0.05,0.9,6.0,"16:15:36",1
"22/01/19","16:30",0.0,5.5,72.5,1013.5,293.6,3.1,4.7,306.8,0.05,1.0,6.0,"16:23:08",1
"22/01/19","16:40",0.0,5.6,72.8,1013.3,286.2,2.1,2.7,291.8,0.05,1.1,6.0,"16:30:40",1
"22/01/19","16:50",0.0,5.5,72.7,1013.5,300.0,2.7,4.7,303.2,0.04,1.0,6.0,"16:49:02",1
"22/01/19","17:00",0.0,5.3,73.3,1013.5,300.7,2.3,3.7,325.6,0.02,1.0,6.1,"16:58:34",1
"22/01/19","17:10",0.0,5.2,73.5,1013.8,309.4,2.0,3.7,318.3,0.01,0.9,6.1,"17:01:52",1
"22/01/19","17:20",0.0,5.0,73.7,1013.5,306.0,1.5,2.4,312.4,0.00,0.7,6.1,"17:19:44",1
"22/01/19","17:30",0.0,4.8,74.1,1013.5,317.0,2.1,3.3,323.2,0.00,0.6,6.1,"17:29:20",1
"22/01/19","17:40",0.0,4.7,74.5,1013.3,319.8,2.3,3.6,319.4,0.00,0.6,6.2,"17:36:24",1
"22/01/19","17:50",0.0,4.5,75.1,1013.3,323.7,2.2,3.5,326.8,0.00,0.5,6.1,"17:43:12",1
"22/01/19","18:00",0.0,4.2,75.8,1013.0,319.4,1.8,3.7,331.5,0.00,0.4,5.9,"17:59:28",1
"22/01/19","18:10",0.0,3.7,76.9,1013.0,323.0,2.1,3.1,314.7,0.00,0.1,6.1,"18:04:40",1
"22/01/19","18:20",0.0,3.4,78.4,1013.0,302.9,2.1,3.3,320.6,0.00,0.0,6.0,"18:13:36",1
"22/01/19","18:30",0.0,3.1,79.6,1012.8,320.6,1.6,2.5,320.2,0.00,0.0,6.0,"18:29:04",1
"22/01/19","18:40",0.0,2.7,80.7,1012.8,305.7,1.7,2.2,322.0,0.00,-0.2,5.9,"18:31:28",1
"22/01/19","18:50",0.0,2.4,82.0,1012.8,307.8,2.0,2.9,312.1,0.00,-0.3,6.1,"18:42:48",1
"22/01/19","19:00",0.0,2.2,83.5,1012.8,323.7,3.0,4.3,327.1,0.00,-0.3,6.0,"18:52:00",1
"22/01/19","19:10",0.0,1.9,85.0,1012.3,324.3,3.0,4.2,334.1,0.00,-0.3,6.1,"19:08:56",1
"22/01/19","19:20",0.0,1.9,86.2,1012.3,325.7,3.1,4.5,326.8,0.00,-0.1,5.9,"19:11:44",1
"22/01/19","19:30",0.0,1.8,87.1,1012.3,325.4,3.2,5.4,335.7,0.00,-0.1,5.9,"19:23:20",1
"22/01/19","19:40",0.0,1.6,87.7,1011.9,318.1,3.0,3.7,320.8,0.00,-0.2,5.9,"19:34:48",1
"22/01/19","19:50",0.0,1.4,88.3,1011.9,320.0,2.7,4.0,329.3,0.00,-0.3,5.8,"19:47:20",1
"22/01/19","20:00",0.0,1.1,88.7,1012.1,296.3,0.8,2.4,314.2,0.00,-0.5,5.8,"19:50:56",1
"22/01/19","20:10",0.0,1.2,89.3,1011.9,272.3,2.0,2.8,321.8,0.00,-0.3,5.8,"20:09:04",1
"22/01/19","20:20",0.0,0.9,89.6,1012.1,332.6,2.0,2.8,322.0,0.00,-0.6,5.9,"20:11:52",1
"22/01/19","20:30",0.0,0.4,90.1,1011.4,325.5,2.1,3.1,326.5,0.00,-1.0,5.8,"20:24:56",1
"22/01/19","20:40",0.0,0.2,90.5,1011.6,328.6,1.6,2.2,329.9,0.00,-1.1,5.6,"20:34:32",1
"22/01/19","20:50",0.0,-0.2,90.9,1011.6,285.1,1.0,1.2,306.6,0.00,-1.5,5.7,"20:40:08",1
"22/01/19","21:00",0.0,-0.3,91.2,1011.6,295.6,1.0,1.2,307.4,0.00,-1.5,5.7,"20:53:04",1
"22/01/19","21:10",0.0,-0.2,91.6,1011.2,307.0,1.3,2.2,322.3,0.00,-1.4,5.7,"21:03:52",1
"22/01/19","21:20",0.0,-0.2,91.8,1011.4,312.4,1.2,2.6,338.3,0.00,-1.3,5.7,"21:12:08",1
"22/01/19","21:30",0.0,-0.3,92.1,1011.4,328.0,1.5,2.4,323.8,0.00,-1.4,5.7,"21:28:00",1
"22/01/19","21:40",0.0,-0.4,92.7,1011.2,333.9,1.7,3.1,327.3,0.00,-1.4,5.6,"21:39:28",1
"22/01/19","21:50",0.0,-0.1,92.8,1011.2,319.2,2.2,2.8,321.3,0.00,-1.1,5.7,"21:42:32",1
"22/01/19","22:00",0.0,-0.2,93.1,1010.9,317.7,1.8,2.8,320.6,0.00,-1.1,5.6,"21:59:52",1
"22/01/19","22:10",0.0,0.0,93.4,1010.7,329.3,2.5,3.7,339.2,0.00,-0.9,5.4,"22:05:12",1
"22/01/19","22:20",0.0,0.0,93.5,1011.2,314.6,2.1,2.6,333.5,0.00,-0.9,5.6,"22:11:12",1
"22/01/19","22:30",0.0,-0.3,93.7,1011.2,311.3,1.1,3.2,315.3,0.00,-1.1,5.3,"22:20:32",1
"22/01/19","22:40",0.0,-0.8,93.9,1011.2,310.0,1.1,1.7,334.4,0.00,-1.6,5.2,"22:37:28",1
"22/01/19","22:50",0.0,-1.4,94.3,1010.7,334.2,1.3,1.7,342.5,0.00,-2.2,5.2,"22:43:04",1
"22/01/19","23:00",0.0,-1.5,94.6,1010.7,319.6,1.3,2.0,324.2,0.00,-2.2,5.5,"22:55:12",1
"22/01/19","23:10",0.0,-1.6,94.9,1010.2,17.8,1.0,2.2,337.8,0.00,-2.3,5.3,"23:00:40",1
"22/01/19","23:20",0.0,-1.2,94.9,1010.4,325.2,0.8,1.7,303.1,0.00,-1.9,5.2,"23:19:20",1
"22/01/19","23:30",0.0,-1.6,95.2,1010.4,329.5,1.6,1.9,329.5,0.00,-2.2,5.2,"23:22:24",1
"22/01/19","23:40",0.0,-1.7,95.3,1010.0,318.5,1.3,1.9,322.6,0.00,-2.3,5.2,"23:33:28",1
"22/01/19","23:50",0.0,-2.0,95.5,1010.2,307.0,1.2,2.0,321.1,0.00,-2.6,5.1,"23:41:28",1
"22/01/19","24:00",0.0,-2.1,95.8,1010.0,314.3,2.0,2.7,318.0,0.00,-2.6,5.1,"23:58:16",1
